{"data":{"norad_id":47819,"intl_designator":"2021-018AJ","name":"STARLINK-2402","alt_names":[],"object_type":"PAYLOAD","status":"ACTIVE","operator":null,"country":"US","launch_date":"2021-03-11","launch_site_code":"AFETR","launch_vehicle":null,"mission":null,"orbit_class":"UNKNOWN","rcs_meters":null,"size_class":null,"mass_kg":null,"dimensions":null,"purposes":["comms"],"wikipedia_slug":null,"has_3d_model":false,"image_url":null,"decayed_at":null,"tle_current":{"epoch":"2026-09-20T00:32:28.485024Z","epoch_age_seconds":70501,"freshness":"FRESH","line1":"1 47819U 21018AJ  26263.02255191 -.00001198  00000+0 -26861-4 0  9992","line2":"2 47819  53.1593  58.6504 0001124 109.1237 250.9886 15.31697801306565","mean_motion":15.31697801,"eccentricity":0.0001124,"inclination_deg":53.1593,"raan_deg":58.6504,"arg_perigee_deg":109.1237,"mean_anomaly_deg":250.9886,"bstar":-2.6861e-5,"rev_number":30656,"period_min":94.01332293223,"perigee_km":469.97673582701,"apogee_km":471.51636484912,"semimajor_km":6848.8835503381,"source":"CELESTRAK","updated_at":"2026-09-20T09:00:38.749389Z"}}}